| time (UTC) | temp F | wind direction | speed knots | gust knots | rain 1hr in | rain 24hr in | rain mn in | humidity % | barometer mb |
| 20260509232643 | 56 | 100 | 4.3 | 10.4 | 0.00 | 0.00 | 0.00 | 80 | 1016.9 |
| 20260509232128 | 56 | 126 | 5.2 | 10.4 | 0.00 | 0.00 | 0.00 | 80 | 1017.0 |
| 20260509231615 | 56 | 309 | 3.5 | 10.4 | 0.00 | 0.00 | 0.00 | 79 | 1017.0 |
| 20260509230549 | 57 | 295 | 1.7 | 10.4 | 0.00 | 0.00 | 0.00 | 80 | 1017.0 |
| 20260509230036 | 57 | 71 | 5.2 | 10.4 | 0.00 | 0.00 | 0.00 | 78 | 1017.0 |
| 20260509225523 | 57 | 71 | 3.5 | 7.0 | 0.00 | 0.00 | 0.00 | 78 | 1017.1 |
| 20260509225010 | 57 | 299 | 4.3 | 7.0 | 0.00 | 0.00 | 0.00 | 78 | 1017.1 |
| 20260509224457 | 58 | 291 | 3.5 | 8.7 | 0.00 | 0.00 | 0.00 | 78 | 1017.0 |
| 20260509223944 | 58 | 330 | 1.7 | 8.7 | 0.00 | 0.00 | 0.00 | 78 | 1017.0 |
| 20260509223431 | 58 | 344 | 3.5 | 8.7 | 0.00 | 0.00 | 0.00 | 78 | 1016.9 |
| 20260509222918 | 58 | 145 | 3.5 | 7.8 | 0.00 | 0.00 | 0.00 | 78 | 1017.0 |
| 20260509222405 | 57 | 0 | 5.2 | 7.8 | 0.00 | 0.00 | 0.00 | 78 | 1016.9 |
| 20260509221852 | 58 | 2 | 5.2 | 8.7 | 0.00 | 0.00 | 0.00 | 78 | 1017.0 |
| 20260509221339 | 58 | 12 | 3.5 | 8.7 | 0.00 | 0.00 | 0.00 | 78 | 1017.0 |
| 20260509220826 | 58 | 299 | 3.5 | 8.7 | 0.00 | 0.00 | 0.00 | 78 | 1017.1 |
| 20260509220313 | 58 | 0 | 2.6 | 12.2 | 0.00 | 0.00 | 0.00 | 79 | 1017.2 |
| 20260509215800 | 58 | 7 | 3.5 | 12.2 | 0.00 | 0.00 | 0.00 | 79 | 1017.3 |
| 20260509215247 | 58 | 308 | 5.2 | 12.2 | 0.00 | 0.00 | 0.00 | 79 | 1017.4 |
| 20260509214734 | 58 | 89 | 3.5 | 10.4 | 0.00 | 0.00 | 0.00 | 79 | 1017.6 |
| 20260509214221 | 58 | 109 | 5.2 | 10.4 | 0.00 | 0.00 | 0.00 | 78 | 1017.6 |
| 20260509213709 | 59 | 338 | 5.2 | 8.7 | 0.00 | 0.00 | 0.00 | 78 | 1017.6 |
| 20260509213155 | 59 | 357 | 4.3 | 7.8 | 0.00 | 0.00 | 0.00 | 78 | 1017.6 |
| 20260509212643 | 58 | 46 | 3.5 | 7.8 | 0.00 | 0.00 | 0.00 | 79 | 1017.6 |
| 20260509212129 | 58 | 99 | 5.2 | 7.8 | 0.00 | 0.00 | 0.00 | 79 | 1017.7 |
| 20260509211616 | 58 | 336 | 2.6 | 7.8 | 0.00 | 0.00 | 0.00 | 80 | 1017.7 |
| 20260509210550 | 58 | 78 | 0.9 | 11.3 | 0.00 | 0.00 | 0.00 | 80 | 1018.0 |
| 20260509210037 | 57 | 54 | 2.6 | 11.3 | 0.00 | 0.00 | 0.00 | 81 | 1018.0 |
| 20260509205524 | 57 | 68 | 5.2 | 11.3 | 0.00 | 0.00 | 0.00 | 81 | 1018.0 |
| 20260509204458 | 56 | 114 | 4.3 | 9.6 | 0.00 | 0.00 | 0.00 | 82 | 1018.2 |
| 20260509203945 | 55 | 15 | 1.7 | 16.5 | 0.00 | 0.00 | 0.00 | 83 | 1018.2 |
| 20260509203432 | 55 | 75 | 2.6 | 16.5 | 0.00 | 0.00 | 0.00 | 83 | 1018.3 |
| 20260509202919 | 55 | 100 | 7.8 | 16.5 | 0.00 | 0.00 | 0.00 | 82 | 1018.4 |
| 20260509202406 | 55 | 310 | 3.5 | 12.2 | 0.00 | 0.00 | 0.00 | 82 | 1018.3 |
| 20260509201853 | 56 | 345 | 5.2 | 10.4 | 0.00 | 0.00 | 0.00 | 82 | 1018.3 |
| 20260509201340 | 56 | 57 | 4.3 | 10.4 | 0.00 | 0.00 | 0.00 | 82 | 1018.3 |
| 20260509200827 | 55 | 29 | 6.1 | 10.4 | 0.00 | 0.00 | 0.00 | 82 | 1018.4 |
| 20260509195801 | 55 | 77 | 4.3 | 10.4 | 0.00 | 0.00 | 0.00 | 83 | 1018.5 |
| 20260509195248 | 55 | 96 | 5.2 | 10.4 | 0.00 | 0.00 | 0.00 | 82 | 1018.5 |
| 20260509194735 | 56 | 21 | 5.2 | 10.4 | 0.00 | 0.00 | 0.00 | 82 | 1018.5 |
| 20260509194222 | 56 | 105 | 4.3 | 10.4 | 0.00 | 0.00 | 0.00 | 82 | 1018.5 |
| 20260509193709 | 56 | 60 | 1.7 | 10.4 | 0.00 | 0.00 | 0.00 | 83 | 1018.5 |
| 20260509193156 | 57 | 308 | 4.3 | 8.7 | 0.00 | 0.00 | 0.00 | 83 | 1018.5 |
| 20260509192643 | 56 | 323 | 1.7 | 7.8 | 0.00 | 0.00 | 0.00 | 84 | 1018.6 |
| 20260509192130 | 55 | 92 | 2.6 | 7.8 | 0.00 | 0.00 | 0.00 | 85 | 1018.5 |
| 20260509191617 | 55 | 100 | 5.2 | 9.6 | 0.00 | 0.00 | 0.00 | 85 | 1018.6 |
| 20260509191104 | 55 | 51 | 3.5 | 9.6 | 0.00 | 0.00 | 0.00 | 85 | 1018.7 |
| 20260509190551 | 54 | 110 | 4.3 | 9.6 | 0.00 | 0.00 | 0.00 | 85 | 1018.7 |
| 20260509190038 | 54 | 23 | 3.5 | 8.7 | 0.00 | 0.00 | 0.00 | 85 | 1019.0 |
| 20260509185525 | 54 | 63 | 2.6 | 8.7 | 0.00 | 0.00 | 0.00 | 86 | 1018.9 |
| 20260509185013 | 55 | 11 | 5.2 | 8.7 | 0.00 | 0.00 | 0.00 | 86 | 1018.9 |
| 20260509184639 | 54 | 301 | 4.3 | 8.7 | 0.00 | 0.00 | 0.00 | 86 | 1019.0 |
| 20260509184459 | 54 | 301 | 4.3 | 8.7 | 0.00 | 0.00 | 0.00 | 86 | 1019.0 |
| 20260509183946 | 55 | 112 | 2.6 | 8.7 | 0.00 | 0.00 | 0.00 | 87 | 1019.1 |
| 20260509183433 | 54 | 357 | 2.6 | 8.7 | 0.00 | 0.00 | 0.00 | 87 | 1019.0 |
| 20260509182920 | 54 | 302 | 2.6 | 8.7 | 0.00 | 0.00 | 0.00 | 88 | 1019.0 |
| 20260509182407 | 54 | 145 | 5.2 | 8.7 | 0.00 | 0.00 | 0.00 | 88 | 1019.0 |
| 20260509181854 | 54 | 100 | 2.6 | 8.7 | 0.00 | 0.00 | 0.00 | 88 | 1019.2 |
| 20260509181341 | 55 | 0 | 2.6 | 7.8 | 0.00 | 0.00 | 0.00 | 89 | 1019.1 |
| 20260509180828 | 54 | 0 | 2.6 | 7.8 | 0.00 | 0.00 | 0.00 | 88 | 1019.1 |
| 20260509180315 | 54 | 1 | 3.5 | 7.8 | 0.00 | 0.00 | 0.00 | 89 | 1019.2 |
| 20260509175802 | 54 | 329 | 0.0 | 7.8 | 0.00 | 0.00 | 0.00 | 89 | 1019.1 |
| 20260509175249 | 54 | 4 | 2.6 | 7.8 | 0.00 | 0.00 | 0.00 | 89 | 1019.0 |
| 20260509174223 | 54 | 299 | 0.0 | 7.8 | 0.00 | 0.00 | 0.00 | 90 | 1019.0 |
| 20260509173710 | 53 | 313 | 3.5 | 7.8 | 0.00 | 0.00 | 0.00 | 90 | 1019.0 |
| 20260509173157 | 54 | 313 | 0.0 | 7.8 | 0.00 | 0.00 | 0.00 | 90 | 1019.1 |
| 20260509172644 | 55 | 357 | 4.3 | 7.0 | 0.00 | 0.00 | 0.00 | 90 | 1019.1 |
| 20260509171618 | 54 | 289 | 3.5 | 6.1 | 0.00 | 0.00 | 0.00 | 91 | 1019.1 |
| 20260509171105 | 53 | 336 | 0.0 | 4.3 | 0.00 | 0.00 | 0.00 | 91 | 1019.1 |
| 20260509170552 | 53 | 0 | 0.0 | 4.3 | 0.00 | 0.00 | 0.00 | 92 | 1019.1 |
| 20260509170039 | 53 | 0 | 0.0 | 4.3 | 0.00 | 0.00 | 0.00 | 92 | 1019.3 |
| 20260509165526 | 53 | 336 | 1.7 | 4.3 | 0.00 | 0.00 | 0.00 | 92 | 1019.3 |
| 20260509164500 | 52 | 0 | 0.0 | 3.5 | 0.00 | 0.00 | 0.00 | 92 | 1019.2 |
| 20260509163947 | 51 | 0 | 0.0 | 3.5 | 0.00 | 0.00 | 0.00 | 93 | 1019.2 |
| 20260509163434 | 51 | 0 | 0.0 | 3.5 | 0.00 | 0.00 | 0.00 | 93 | 1019.4 |
| 20260509162921 | 51 | 333 | 0.9 | 3.5 | 0.00 | 0.00 | 0.00 | 93 | 1019.5 |
| 20260509161855 | 51 | 0 | 0.0 | 0.0 | 0.00 | 0.00 | 0.00 | 93 | 1019.5 |
| 20260509161342 | 51 | 0 | 0.0 | 0.0 | 0.00 | 0.00 | 0.00 | 93 | 1019.4 |
| 20260509160829 | 51 | 0 | 0.0 | 0.0 | 0.00 | 0.00 | 0.00 | 93 | 1019.6 |
| 20260509160316 | 51 | 0 | 0.0 | 0.0 | 0.00 | 0.00 | 0.00 | 93 | 1019.5 |
| 20260509155805 | 51 | 0 | 0.0 | 0.0 | 0.00 | 0.00 | 0.00 | 93 | 1019.6 |
| 20260509155250 | 50 | 0 | 0.0 | 0.0 | 0.00 | 0.00 | 0.00 | 93 | 1019.7 |
| 20260509154737 | 51 | 0 | 0.0 | 0.0 | 0.00 | 0.00 | 0.00 | 93 | 1019.8 |
| 20260509154224 | 51 | 0 | 0.0 | 0.0 | 0.00 | 0.00 | 0.00 | 93 | 1019.7 |
| 20260509153712 | 50 | 0 | 0.0 | 0.0 | 0.00 | 0.00 | 0.00 | 93 | 1019.7 |
| 20260509153158 | 50 | 0 | 0.0 | 0.0 | 0.00 | 0.00 | 0.00 | 93 | 1019.8 |
| 20260509152645 | 50 | 0 | 0.0 | 0.0 | 0.00 | 0.00 | 0.00 | 93 | 1019.8 |
| 20260509152132 | 50 | 0 | 0.0 | 0.0 | 0.00 | 0.00 | 0.00 | 93 | 1019.8 |
| 20260509151619 | 50 | 0 | 0.0 | 0.0 | 0.00 | 0.00 | 0.00 | 93 | 1019.8 |
| 20260509151106 | 50 | 0 | 0.0 | 0.0 | 0.00 | 0.00 | 0.00 | 93 | 1019.9 |
| 20260509150553 | 50 | 0 | 0.0 | 0.0 | 0.00 | 0.00 | 0.00 | 93 | 1019.8 |
| 20260509150040 | 49 | 0 | 0.0 | 0.0 | 0.00 | 0.00 | 0.00 | 93 | 1020.0 |
| 20260509145528 | 48 | 0 | 0.0 | 0.0 | 0.00 | 0.00 | 0.00 | 93 | 1020.0 |
| 20260509145014 | 48 | 0 | 0.0 | 0.0 | 0.00 | 0.00 | 0.00 | 93 | 1020.1 |
| 20260509144501 | 48 | 0 | 0.0 | 0.0 | 0.00 | 0.00 | 0.00 | 93 | 1020.0 |
| 20260509143948 | 47 | 0 | 0.0 | 0.0 | 0.00 | 0.00 | 0.00 | 93 | 1019.9 |
| 20260509143435 | 47 | 0 | 0.0 | 0.0 | 0.00 | 0.00 | 0.00 | 93 | 1019.9 |
| 20260509142922 | 47 | 0 | 0.0 | 0.0 | 0.00 | 0.00 | 0.00 | 93 | 1019.8 |
| 20260509142408 | 46 | 0 | 0.0 | 0.0 | 0.00 | 0.00 | 0.00 | 93 | 1019.7 |
| 20260509141856 | 46 | 0 | 0.0 | 0.0 | 0.00 | 0.00 | 0.00 | 93 | 1019.7 |
| 20260509141343 | 46 | 0 | 0.0 | 0.0 | 0.00 | 0.00 | 0.00 | 93 | 1019.9 |
| 20260509140830 | 46 | 0 | 0.0 | 0.0 | 0.00 | 0.00 | 0.00 | 93 | 1019.9 |
| 20260509140316 | 46 | 0 | 0.0 | 0.0 | 0.00 | 0.00 | 0.00 | 93 | 1019.9 |
| 20260509135804 | 46 | 0 | 0.0 | 0.0 | 0.00 | 0.00 | 0.00 | 93 | 1019.8 |
| 20260509135250 | 46 | 0 | 0.0 | 0.0 | 0.00 | 0.00 | 0.00 | 93 | 1019.8 |
| 20260509134738 | 46 | 0 | 0.0 | 0.0 | 0.00 | 0.00 | 0.00 | 93 | 1019.7 |
| 20260509133712 | 45 | 0 | 0.0 | 0.0 | 0.00 | 0.00 | 0.00 | 93 | 1019.7 |
| 20260509133200 | 45 | 0 | 0.0 | 0.0 | 0.00 | 0.00 | 0.00 | 93 | 1019.8 |
| 20260509132645 | 45 | 0 | 0.0 | 0.0 | 0.00 | 0.00 | 0.00 | 93 | 1019.8 |
| 20260509132132 | 45 | 0 | 0.0 | 0.0 | 0.00 | 0.00 | 0.00 | 93 | 1019.8 |
| 20260509131106 | 45 | 0 | 0.0 | 0.0 | 0.00 | 0.00 | 0.00 | 93 | 1019.8 |
| 20260509130553 | 45 | 0 | 0.0 | 0.0 | 0.00 | 0.00 | 0.00 | 93 | 1019.9 |
| 20260509130040 | 45 | 0 | 0.0 | 0.0 | 0.00 | 0.00 | 0.00 | 93 | 1020.0 |
| 20260509124501 | 45 | 0 | 0.0 | 0.0 | 0.00 | 0.00 | 0.00 | 93 | 1019.9 |
| 20260509123948 | 45 | 0 | 0.0 | 0.0 | 0.00 | 0.00 | 0.00 | 93 | 1019.9 |
| 20260509123435 | 45 | 0 | 0.0 | 0.0 | 0.00 | 0.00 | 0.00 | 93 | 1019.9 |
| 20260509122922 | 45 | 0 | 0.0 | 0.0 | 0.00 | 0.00 | 0.00 | 93 | 1020.1 |
| 20260509122409 | 45 | 0 | 0.0 | 0.0 | 0.00 | 0.00 | 0.00 | 93 | 1020.2 |
| 20260509121856 | 45 | 0 | 0.0 | 0.0 | 0.00 | 0.00 | 0.00 | 93 | 1020.2 |
| 20260509121343 | 45 | 0 | 0.0 | 0.0 | 0.00 | 0.00 | 0.00 | 93 | 1020.2 |
| 20260509120830 | 45 | 0 | 0.0 | 0.0 | 0.00 | 0.00 | 0.00 | 93 | 1020.4 |
| 20260509120317 | 45 | 0 | 0.0 | 0.0 | 0.00 | 0.00 | 0.00 | 92 | 1020.4 |
| 20260509115804 | 45 | 0 | 0.0 | 0.0 | 0.00 | 0.00 | 0.00 | 93 | 1020.5 |
| 20260509115251 | 45 | 0 | 0.0 | 0.0 | 0.00 | 0.00 | 0.00 | 92 | 1020.4 |
| 20260509114738 | 45 | 0 | 0.0 | 0.0 | 0.00 | 0.00 | 0.00 | 92 | 1020.4 |
| 20260509113712 | 45 | 0 | 0.0 | 0.0 | 0.00 | 0.00 | 0.00 | 92 | 1020.5 |
| 20260509113159 | 45 | 0 | 0.0 | 0.0 | 0.00 | 0.00 | 0.00 | 92 | 1020.5 |
| 20260509112646 | 45 | 0 | 0.0 | 0.0 | 0.00 | 0.00 | 0.00 | 92 | 1020.7 |
| 20260509112133 | 45 | 0 | 0.0 | 0.0 | 0.00 | 0.00 | 0.00 | 92 | 1020.7 |
| 20260509111620 | 45 | 0 | 0.0 | 0.0 | 0.00 | 0.00 | 0.00 | 92 | 1020.8 |
| 20260509111109 | 45 | 0 | 0.0 | 0.0 | 0.00 | 0.00 | 0.00 | 92 | 1020.8 |
| 20260509110554 | 45 | 0 | 0.0 | 0.0 | 0.00 | 0.00 | 0.00 | 92 | 1020.7 |
| 20260509110041 | 46 | 0 | 0.0 | 0.0 | 0.00 | 0.00 | 0.00 | 92 | 1020.6 |
| 20260509105528 | 46 | 0 | 0.0 | 0.0 | 0.00 | 0.00 | 0.00 | 92 | 1020.7 |
| 20260509104502 | 46 | 0 | 0.0 | 0.0 | 0.00 | 0.00 | 0.00 | 92 | 1020.5 |
| 20260509103951 | 45 | 0 | 0.0 | 0.0 | 0.00 | 0.00 | 0.00 | 92 | 1020.5 |
| 20260509103436 | 45 | 0 | 0.0 | 0.0 | 0.00 | 0.00 | 0.00 | 92 | 1020.5 |
| 20260509102923 | 45 | 0 | 0.0 | 0.0 | 0.00 | 0.00 | 0.00 | 92 | 1020.5 |
| 20260509102410 | 45 | 0 | 0.0 | 0.0 | 0.00 | 0.00 | 0.00 | 91 | 1020.5 |
| 20260509101858 | 46 | 0 | 0.0 | 0.0 | 0.00 | 0.00 | 0.00 | 92 | 1020.7 |
| 20260509101344 | 45 | 0 | 0.0 | 0.0 | 0.00 | 0.00 | 0.00 | 92 | 1020.8 |
| 20260509100831 | 45 | 0 | 0.0 | 0.0 | 0.00 | 0.00 | 0.00 | 91 | 1020.9 |
| 20260509100318 | 45 | 0 | 0.0 | 0.0 | 0.00 | 0.00 | 0.00 | 92 | 1020.9 |
| 20260509095252 | 45 | 0 | 0.0 | 0.0 | 0.00 | 0.00 | 0.00 | 91 | 1021.1 |
| 20260509094739 | 45 | 0 | 0.0 | 0.0 | 0.00 | 0.00 | 0.00 | 91 | 1021.1 |
| 20260509094226 | 45 | 0 | 0.0 | 0.0 | 0.00 | 0.00 | 0.00 | 91 | 1021.2 |
| 20260509093713 | 45 | 0 | 0.0 | 0.0 | 0.00 | 0.00 | 0.00 | 91 | 1021.1 |
| 20260509093200 | 45 | 0 | 0.0 | 0.0 | 0.00 | 0.00 | 0.00 | 91 | 1021.0 |
| 20260509092647 | 45 | 0 | 0.0 | 0.0 | 0.00 | 0.00 | 0.00 | 91 | 1021.0 |
| 20260509092134 | 45 | 0 | 0.0 | 0.0 | 0.00 | 0.00 | 0.00 | 91 | 1021.0 |
| 20260509091621 | 45 | 0 | 0.0 | 0.0 | 0.00 | 0.00 | 0.00 | 91 | 1020.9 |
| 20260509091108 | 46 | 0 | 0.0 | 0.0 | 0.00 | 0.00 | 0.00 | 91 | 1020.9 |
| 20260509090555 | 46 | 0 | 0.0 | 0.0 | 0.00 | 0.00 | 0.00 | 91 | 1020.9 |
| 20260509085529 | 46 | 0 | 0.0 | 0.0 | 0.00 | 0.00 | 0.00 | 91 | 1021.1 |
| 20260509085017 | 45 | 0 | 0.0 | 0.0 | 0.00 | 0.00 | 0.00 | 91 | 1021.0 |
| 20260509084503 | 46 | 0 | 0.0 | 0.0 | 0.00 | 0.00 | 0.00 | 91 | 1021.2 |
| 20260509083950 | 46 | 0 | 0.0 | 0.0 | 0.00 | 0.00 | 0.00 | 90 | 1021.3 |
| 20260509083437 | 46 | 0 | 0.0 | 0.0 | 0.00 | 0.00 | 0.00 | 90 | 1021.3 |
| 20260509082924 | 46 | 0 | 0.0 | 0.0 | 0.00 | 0.00 | 0.00 | 90 | 1021.3 |
| 20260509082411 | 46 | 0 | 0.0 | 0.0 | 0.00 | 0.00 | 0.00 | 90 | 1021.3 |
| 20260509081858 | 46 | 0 | 0.0 | 0.0 | 0.00 | 0.00 | 0.00 | 90 | 1021.4 |
| 20260509081345 | 46 | 0 | 0.0 | 0.0 | 0.00 | 0.00 | 0.00 | 90 | 1021.4 |
| 20260509080832 | 46 | 0 | 0.0 | 0.0 | 0.00 | 0.00 | 0.00 | 90 | 1021.5 |
| 20260509080319 | 46 | 0 | 0.0 | 0.0 | 0.00 | 0.00 | 0.00 | 90 | 1021.5 |
| 20260509075806 | 46 | 0 | 0.0 | 0.0 | 0.00 | 0.00 | 0.00 | 90 | 1021.5 |
| 20260509075253 | 46 | 0 | 0.0 | 0.0 | 0.00 | 0.00 | 0.00 | 90 | 1021.5 |
| 20260509074740 | 46 | 0 | 0.0 | 0.0 | 0.00 | 0.00 | 0.00 | 89 | 1021.6 |
| 20260509074227 | 46 | 0 | 0.0 | 0.0 | 0.00 | 0.00 | 0.00 | 89 | 1021.7 |
| 20260509073714 | 46 | 0 | 0.0 | 0.0 | 0.00 | 0.00 | 0.00 | 89 | 1021.6 |
| 20260509073201 | 46 | 0 | 0.0 | 0.0 | 0.00 | 0.00 | 0.00 | 89 | 1021.7 |
| 20260509072648 | 46 | 0 | 0.0 | 0.0 | 0.00 | 0.00 | 0.00 | 89 | 1021.7 |
| 20260509072135 | 46 | 0 | 0.0 | 0.0 | 0.00 | 0.00 | 0.00 | 89 | 1021.7 |
| 20260509071622 | 47 | 0 | 0.0 | 0.0 | 0.00 | 0.00 | 0.00 | 89 | 1021.7 |
| 20260509071110 | 47 | 0 | 0.0 | 0.0 | 0.00 | 0.00 | 0.00 | 88 | 1021.8 |
| 20260509070556 | 47 | 0 | 0.0 | 0.0 | 0.00 | 0.00 | 0.00 | 88 | 1021.9 |
| 20260509070043 | 47 | 0 | 0.0 | 0.0 | 0.00 | 0.00 | 0.00 | 88 | 1021.8 |
| 20260509065530 | 47 | 0 | 0.0 | 0.0 | 0.00 | 0.00 | 0.00 | 88 | 1021.9 |
| 20260509065017 | 47 | 0 | 0.0 | 0.0 | 0.00 | 0.00 | 0.00 | 88 | 1021.9 |
| 20260509064504 | 47 | 0 | 0.0 | 0.0 | 0.00 | 0.00 | 0.00 | 88 | 1021.9 |
| 20260509063951 | 47 | 0 | 0.0 | 0.0 | 0.00 | 0.00 | 0.00 | 88 | 1021.9 |
| 20260509063438 | 47 | 0 | 0.0 | 0.0 | 0.00 | 0.00 | 0.00 | 87 | 1022.0 |
| 20260509062925 | 47 | 0 | 0.0 | 0.0 | 0.00 | 0.00 | 0.00 | 87 | 1022.0 |
| 20260509062412 | 47 | 0 | 0.0 | 0.0 | 0.00 | 0.00 | 0.00 | 87 | 1022.1 |
| 20260509061859 | 48 | 0 | 0.0 | 0.0 | 0.00 | 0.00 | 0.00 | 87 | 1022.2 |
| 20260509061346 | 48 | 0 | 0.0 | 0.0 | 0.00 | 0.00 | 0.00 | 86 | 1022.2 |
| 20260509060833 | 48 | 0 | 0.0 | 0.0 | 0.00 | 0.00 | 0.00 | 86 | 1022.3 |
| 20260509060320 | 48 | 0 | 0.0 | 0.0 | 0.00 | 0.00 | 0.00 | 86 | 1022.3 |
| 20260509055807 | 48 | 0 | 0.0 | 0.0 | 0.00 | 0.00 | 0.00 | 86 | 1022.4 |
| 20260509055254 | 48 | 0 | 0.0 | 0.0 | 0.00 | 0.00 | 0.00 | 86 | 1022.4 |
| 20260509054741 | 48 | 0 | 0.0 | 0.0 | 0.00 | 0.00 | 0.00 | 86 | 1022.4 |
| 20260509054228 | 48 | 0 | 0.0 | 0.0 | 0.00 | 0.00 | 0.00 | 85 | 1022.4 |
| 20260509053715 | 48 | 0 | 0.0 | 0.0 | 0.00 | 0.00 | 0.00 | 85 | 1022.4 |
| 20260509053202 | 48 | 0 | 0.0 | 0.0 | 0.00 | 0.00 | 0.00 | 85 | 1022.4 |
| 20260509052649 | 48 | 0 | 0.0 | 0.0 | 0.00 | 0.00 | 0.00 | 84 | 1022.4 |
| 20260509051623 | 49 | 0 | 0.0 | 0.0 | 0.00 | 0.00 | 0.00 | 84 | 1022.5 |
| 20260509051110 | 49 | 0 | 0.0 | 0.0 | 0.00 | 0.00 | 0.00 | 84 | 1022.5 |
| 20260509050557 | 49 | 0 | 0.0 | 0.0 | 0.00 | 0.00 | 0.00 | 84 | 1022.5 |
| 20260509050044 | 49 | 0 | 0.0 | 0.0 | 0.00 | 0.00 | 0.00 | 83 | 1022.5 |
| 20260509045531 | 49 | 0 | 0.0 | 0.0 | 0.00 | 0.00 | 0.00 | 83 | 1022.5 |
| 20260509045018 | 49 | 0 | 0.0 | 0.0 | 0.00 | 0.00 | 0.00 | 83 | 1022.4 |
| 20260509044505 | 49 | 0 | 0.0 | 0.0 | 0.00 | 0.00 | 0.00 | 82 | 1022.3 |
| 20260509043952 | 49 | 0 | 0.0 | 0.0 | 0.00 | 0.00 | 0.00 | 82 | 1022.4 |
| 20260509043439 | 50 | 0 | 0.0 | 0.0 | 0.00 | 0.00 | 0.00 | 82 | 1022.4 |
| 20260509042926 | 50 | 0 | 0.0 | 0.0 | 0.00 | 0.00 | 0.00 | 81 | 1022.4 |
| 20260509042414 | 50 | 0 | 0.0 | 0.0 | 0.00 | 0.00 | 0.00 | 81 | 1022.4 |
| 20260509041900 | 50 | 0 | 0.0 | 0.0 | 0.00 | 0.00 | 0.00 | 81 | 1022.4 |
| 20260509041347 | 51 | 0 | 0.0 | 0.0 | 0.00 | 0.00 | 0.00 | 81 | 1022.3 |
| 20260509040834 | 51 | 0 | 0.0 | 0.0 | 0.00 | 0.00 | 0.00 | 80 | 1022.3 |
| 20260509040321 | 51 | 0 | 0.0 | 0.0 | 0.00 | 0.00 | 0.00 | 80 | 1022.2 |
| 20260509035808 | 51 | 0 | 0.0 | 0.0 | 0.00 | 0.00 | 0.00 | 80 | 1022.2 |
| 20260509035255 | 51 | 0 | 0.0 | 0.0 | 0.00 | 0.00 | 0.00 | 80 | 1022.2 |
| 20260509034742 | 51 | 0 | 0.0 | 0.0 | 0.00 | 0.00 | 0.00 | 79 | 1022.1 |
| 20260509034229 | 52 | 0 | 0.0 | 0.0 | 0.00 | 0.00 | 0.00 | 79 | 1022.0 |
| 20260509033716 | 52 | 0 | 0.0 | 0.0 | 0.00 | 0.00 | 0.00 | 79 | 1022.1 |
| 20260509033203 | 52 | 0 | 0.0 | 0.0 | 0.00 | 0.00 | 0.00 | 79 | 1022.0 |
| 20260509032650 | 52 | 0 | 0.0 | 0.0 | 0.00 | 0.00 | 0.00 | 79 | 1022.1 |
| 20260509032137 | 52 | 0 | 0.0 | 0.0 | 0.00 | 0.00 | 0.00 | 79 | 1022.1 |
| 20260509031624 | 53 | 0 | 0.0 | 0.0 | 0.00 | 0.00 | 0.00 | 79 | 1022.1 |
| 20260509030558 | 53 | 0 | 0.0 | 3.5 | 0.00 | 0.00 | 0.00 | 78 | 1022.2 |
| 20260509025532 | 53 | 95 | 0.0 | 3.5 | 0.00 | 0.00 | 0.00 | 78 | 1022.1 |
| 20260509025019 | 53 | 0 | 0.0 | 6.1 | 0.00 | 0.00 | 0.00 | 78 | 1022.2 |
| 20260509024506 | 53 | 0 | 0.0 | 6.1 | 0.00 | 0.00 | 0.00 | 78 | 1022.1 |
| 20260509023953 | 53 | 0 | 0.0 | 6.1 | 0.00 | 0.00 | 0.00 | 78 | 1022.1 |
| 20260509023440 | 54 | 0 | 0.0 | 0.0 | 0.00 | 0.00 | 0.00 | 78 | 1022.1 |
| 20260509022927 | 53 | 0 | 0.0 | 6.1 | 0.00 | 0.00 | 0.00 | 78 | 1022.1 |
| 20260509022414 | 53 | 0 | 0.0 | 6.1 | 0.00 | 0.00 | 0.00 | 78 | 1022.1 |
| 20260509021901 | 54 | 296 | 0.0 | 6.1 | 0.00 | 0.00 | 0.00 | 78 | 1022.1 |
| 20260509021348 | 54 | 0 | 0.0 | 4.3 | 0.00 | 0.00 | 0.00 | 78 | 1022.1 |
| 20260509020835 | 54 | 0 | 0.9 | 0.9 | 0.00 | 0.00 | 0.00 | 77 | 1022.1 |
| 20260509020322 | 54 | 295 | 0.9 | 6.1 | 0.00 | 0.00 | 0.00 | 77 | 1022.1 |
| 20260509015809 | 53 | 0 | 3.5 | 6.1 | 0.00 | 0.00 | 0.00 | 77 | 1022.0 |
| 20260509015256 | 53 | 306 | 3.5 | 6.1 | 0.00 | 0.00 | 0.00 | 77 | 1022.0 |
| 20260509014743 | 54 | 357 | 0.0 | 7.0 | 0.00 | 0.00 | 0.00 | 77 | 1021.9 |
| 20260509014230 | 53 | 327 | 0.0 | 7.0 | 0.00 | 0.00 | 0.00 | 78 | 1021.8 |
| 20260509013717 | 54 | 345 | 1.7 | 7.0 | 0.00 | 0.00 | 0.00 | 78 | 1021.8 |
| 20260509013204 | 54 | 331 | 2.6 | 7.8 | 0.00 | 0.00 | 0.00 | 77 | 1021.8 |
| 20260509012137 | 53 | 287 | 4.3 | 7.8 | 0.00 | 0.00 | 0.00 | 78 | 1022.0 |
| 20260509011625 | 53 | 319 | 4.3 | 6.1 | 0.00 | 0.00 | 0.00 | 77 | 1022.0 |
| 20260509011111 | 53 | 313 | 4.3 | 6.1 | 0.00 | 0.00 | 0.00 | 78 | 1022.1 |
| 20260509010559 | 53 | 320 | 4.3 | 6.1 | 0.00 | 0.00 | 0.00 | 77 | 1022.2 |
| 20260509010046 | 53 | 336 | 4.3 | 6.1 | 0.00 | 0.00 | 0.00 | 77 | 1022.3 |
| 20260509005019 | 53 | 327 | 3.5 | 7.0 | 0.00 | 0.00 | 0.00 | 77 | 1022.4 |
| 20260509004506 | 54 | 289 | 2.6 | 7.0 | 0.00 | 0.00 | 0.00 | 77 | 1022.4 |
| 20260509003953 | 53 | 331 | 2.6 | 6.1 | 0.00 | 0.00 | 0.00 | 78 | 1022.5 |
| 20260509003440 | 53 | 299 | 0.9 | 7.0 | 0.00 | 0.00 | 0.00 | 78 | 1022.5 |
| 20260509002414 | 53 | 292 | 4.3 | 7.0 | 0.00 | 0.00 | 0.00 | 77 | 1022.6 |
| 20260509001901 | 53 | 302 | 4.3 | 7.0 | 0.00 | 0.00 | 0.00 | 77 | 1022.6 |
| 20260509001348 | 53 | 288 | 3.5 | 6.1 | 0.00 | 0.00 | 0.00 | 77 | 1022.6 |
| 20260509000322 | 53 | 282 | 4.3 | 6.1 | 0.00 | 0.00 | 0.00 | 76 | 1022.7 |
| 20260508234743 | 53 | 301 | 5.2 | 6.1 | 0.00 | 0.00 | 0.00 | 76 | 1022.7 |
| 20260508233717 | 53 | 320 | 2.6 | 6.1 | 0.00 | 0.00 | 0.00 | 77 | 1022.9 |